Home   Weather   Stephenville   Past weeks

Flag for Canada Past Weather in Stephenville, Newfoundland and Labrador, Canada — Yesterday and Last 2 Weeks

41 °F

Mostly cloudy.

Feels Like: 33 °F
Forecast: 35 / 43 °F
Wind: 14 mph from Northeast

Location: Stephenville

Current Time: Oct 26, 2016 at 4:43:06 PM

Latest Report: Oct 26, 2016 at 3:30 PM

Visibility: 15 mi

Pressure: 30.22 "Hg

Humidity: 66%

Dew Point: 30 °F

Location of StephenvilleLocation

Past Weather in Stephenville — Graph


Stephenville Temperature Yesterday

Maximum temperature yesterday: 45 °F (at 12:30 PM)
Minimum temperature yesterday: 36 °F (at 7:30 AM)
Average temperature yesterday: 41 °F

High & Low Weather Summary for the Past Weeks

High61 °F (Oct 22, 9:30 PM)100% (Oct 12, 4:30 AM)30.42 "Hg (Oct 12, 4:30 AM)
Low30 °F (Oct 16, 12:30 AM)43% (Oct 15, 1:30 PM)29.27 "Hg (Oct 23, 12:30 AM)
Average46 °F82%29.95 "Hg
* Reported Oct 11 3:30 PM — Oct 26 3:30 PM, Stephenville, Weather by CustomWeather, © 2016

Note: Actual official high and low records may vary slightly from our data, if they occured in-between our weather recording intervals... More about our weather records


Stephenville Weather History for the Previous 24 Hours

Scroll right to see more
Time TempWeatherWind HumidityBarometerVisibility
3:30 PM
Wed, Oct 26
41 °FMostly cloudy.14 mph66%30.22 "Hg15 mi
2:30 PM41 °FMore clouds than sun.16 mph70%30.21 "Hg15 mi
1:30 PM41 °FMostly cloudy.14 mph70%30.21 "Hg15 mi
12:30 PM39 °FOvercast.16 mph75%30.21 "Hg15 mi
11:30 AM39 °FOvercast.13 mph70%30.20 "Hg15 mi
10:30 AM37 °FOvercast.16 mph75%30.19 "Hg15 mi
9:30 AM37 °FOvercast.15 mph75%30.17 "Hg15 mi
8:30 AM37 °FOvercast.13 mph75%30.15 "Hg15 mi
7:30 AM37 °FPassing clouds.15 mph81%30.12 "Hg15 mi
6:30 AM37 °FPassing clouds.14 mph81%30.09 "Hg15 mi
5:30 AM37 °FPassing clouds.12 mph81%30.07 "Hg15 mi
4:30 AM37 °FPassing clouds.9 mph87%30.06 "Hg15 mi
3:30 AM37 °FOvercast.10 mph81%30.04 "Hg15 mi
2:30 AM37 °FOvercast.9 mph87%30.03 "Hg15 mi
1:30 AM37 °FOvercast.12 mph87%30.01 "Hg15 mi
12:30 AM37 °FOvercast.13 mph87%29.99 "Hg15 mi
11:30 PM
Tue, Oct 25
37 °FOvercast.13 mph87%29.98 "Hg15 mi
10:30 PM37 °FPassing clouds.10 mph87%29.96 "Hg15 mi
9:30 PM39 °FSprinkles. Overcast.12 mph87%29.93 "Hg15 mi
8:30 PM39 °FSprinkles. Overcast.16 mph87%29.90 "Hg15 mi
7:30 PM39 °FSprinkles. Overcast.6 mph93%29.88 "Hg12 mi
6:30 PM41 °FSprinkles. Overcast.9 mph87%29.85 "Hg10 mi
5:30 PM43 °FMostly cloudy.3 mph81%29.82 "Hg15 mi
4:30 PM43 °FPartly sunny.2 mph81%29.81 "Hg15 mi
Weather by CustomWeather, © 2016

See weather overviewHow to use our weather pages